Powrót do katalogu

STARLINK-1209

AktywnyŁącznośćVLEO
NORAD 45206·PAYLOAD·🇺🇸 United States

Wystrzelony Feb 17, 2020 z Cape Canaveral Space Force Station

Loading…

Następne Przeloty (najbliższe 24 godziny)

TLE

ŚwieżeSource: CelesTrak SupGP

Epoka: Sep 14, 2026, 13:20 UTC

1 45206C 20012AE  26257.55604167  .00155410  00000+0  64729-3 0  2571
2 45206  53.0268 122.2305 0004787 132.1262 307.0056 15.84888695    15

Śledź STARLINK-1209 w czasie rzeczywistym z AllMySat

Download on the App Store